Time,TemperatureF,DewpointF,PressureIn,WindDirection,WindDirectionDegrees,WindSpeedMPH,WindSpeedGustMPH,Humidity,HourlyPrecipIn,Conditions,Clouds,dailyrainin,SoftwareType,DateUTC
2013-06-21 00:00:00,66.2,52.4,29.38,East,97,3.6,3.6,61,0.00,,BKN,0.00,VWS V13.01,2013-06-21 04:00:00,
2013-06-21 00:01:00,66.2,52.4,29.38,East,97,3.6,3.6,61,0.00,,BKN,0.00,VWS V13.01,2013-06-21 04:01:00,
2013-06-21 00:06:00,66.0,52.6,29.38,East,97,3.6,3.6,62,0.00,,BKN,0.00,VWS V13.01,2013-06-21 04:06:00,
2013-06-21 00:11:00,66.0,52.6,29.38,East,97,3.6,3.6,62,0.00,,BKN,0.00,VWS V13.01,2013-06-21 04:11:00,
2013-06-21 00:16:00,65.8,52.5,29.38,East,97,3.6,3.6,62,0.00,,BKN,0.00,VWS V13.01,2013-06-21 04:16:00,
2013-06-21 00:21:00,65.7,52.7,29.38,East,97,3.6,3.6,63,0.00,,BKN,0.00,VWS V13.01,2013-06-21 04:21:00,
2013-06-21 00:26:00,65.5,52.6,29.41,East,97,3.6,3.6,63,0.00,,BKN,0.00,VWS V13.01,2013-06-21 04:26:00,
2013-06-21 00:31:00,65.5,52.6,29.41,East,97,3.6,3.6,63,0.00,,BKN,0.00,VWS V13.01,2013-06-21 04:31:00,
2013-06-21 00:36:00,65.5,52.6,29.41,East,97,3.6,3.6,63,0.00,,BKN,0.00,VWS V13.01,2013-06-21 04:36:00,
2013-06-21 00:41:00,65.5,52.1,29.41,East,97,3.6,3.6,62,0.00,,BKN,0.00,VWS V13.01,2013-06-21 04:41:00,
2013-06-21 00:46:00,65.5,52.1,29.41,East,97,3.6,3.6,62,0.00,,BKN,0.00,VWS V13.01,2013-06-21 04:46:00,
2013-06-21 00:51:00,65.3,52.0,29.41,East,97,3.6,3.6,62,0.00,,BKN,0.00,VWS V13.01,2013-06-21 04:51:00,
2013-06-21 00:56:00,65.3,52.0,29.41,East,97,3.6,3.6,62,0.00,,BKN,0.00,VWS V13.01,2013-06-21 04:56:00,
2013-06-21 01:01:00,65.3,52.0,29.41,East,97,3.6,3.6,62,0.00,,BKN,0.00,VWS V13.01,2013-06-21 05:01:00,
2013-06-21 01:06:00,65.1,51.8,29.41,East,97,3.6,3.6,62,0.00,,BKN,0.00,VWS V13.01,2013-06-21 05:06:00,
2013-06-21 01:11:00,65.1,51.3,29.41,East,97,3.6,3.6,61,0.00,,BKN,0.00,VWS V13.01,2013-06-21 05:11:00,
2013-06-21 01:16:00,64.9,51.2,29.41,East,97,3.6,3.6,61,0.00,,BKN,0.00,VWS V13.01,2013-06-21 05:16:00,
2013-06-21 01:21:00,64.8,51.0,29.41,East,97,3.6,3.6,61,0.00,,BKN,0.00,VWS V13.01,2013-06-21 05:21:00,
2013-06-21 01:26:00,64.6,51.3,29.41,East,97,3.6,3.6,62,0.00,,BKN,0.00,VWS V13.01,2013-06-21 05:26:00,
2013-06-21 01:31:00,64.6,50.8,29.41,East,97,3.6,3.6,61,0.00,,BKN,0.00,VWS V13.01,2013-06-21 05:31:00,
2013-06-21 01:35:00,64.4,50.7,29.41,East,97,3.6,3.6,61,0.00,,BKN,0.00,VWS V13.01,2013-06-21 05:35:00,
2013-06-21 01:40:00,64.4,50.7,29.41,East,97,3.6,3.6,61,0.00,,BKN,0.00,VWS V13.01,2013-06-21 05:40:00,
2013-06-21 01:45:00,64.4,50.7,29.41,East,97,3.6,3.6,61,0.00,,BKN,0.00,VWS V13.01,2013-06-21 05:45:00,
2013-06-21 01:50:00,64.4,50.7,29.41,East,97,3.6,3.6,61,0.00,,BKN,0.00,VWS V13.01,2013-06-21 05:50:00,
2013-06-21 01:55:00,64.2,50.5,29.41,East,97,3.6,3.6,61,0.00,,BKN,0.00,VWS V13.01,2013-06-21 05:55:00,
2013-06-21 02:00:00,64.2,50.5,29.41,East,97,3.6,3.6,61,0.00,,BKN,0.00,VWS V13.01,2013-06-21 06:00:00,
2013-06-21 02:05:00,64.0,50.3,29.41,East,97,3.6,3.6,61,0.00,,BKN,0.00,VWS V13.01,2013-06-21 06:05:00,
2013-06-21 02:10:00,63.9,50.6,29.41,East,97,3.6,3.6,62,0.00,,BKN,0.00,VWS V13.01,2013-06-21 06:10:00,
2013-06-21 02:15:00,63.9,50.6,29.41,East,97,3.6,3.6,62,0.00,,BKN,0.00,VWS V13.01,2013-06-21 06:15:00,
2013-06-21 02:20:00,63.9,50.6,29.41,East,97,3.6,3.6,62,0.00,,BKN,0.00,VWS V13.01,2013-06-21 06:20:00,
2013-06-21 02:25:00,63.9,50.6,29.41,East,97,3.6,3.6,62,0.00,,BKN,0.00,VWS V13.01,2013-06-21 06:25:00,
2013-06-21 02:30:00,63.9,50.6,29.41,East,97,3.6,3.6,62,0.00,,BKN,0.00,VWS V13.01,2013-06-21 06:30:00,
2013-06-21 02:35:00,63.7,50.4,29.41,East,97,3.6,3.6,62,0.00,,BKN,0.00,VWS V13.01,2013-06-21 06:35:00,
2013-06-21 02:40:00,63.5,50.3,29.41,East,97,3.6,3.6,62,0.00,,BKN,0.00,VWS V13.01,2013-06-21 06:40:00,
2013-06-21 02:45:00,63.5,50.3,29.41,East,97,3.6,3.6,62,0.00,,BKN,0.00,VWS V13.01,2013-06-21 06:45:00,
2013-06-21 02:50:00,63.5,50.3,29.41,East,97,3.6,3.6,62,0.00,,BKN,0.00,VWS V13.01,2013-06-21 06:50:00,
2013-06-21 02:55:00,63.5,49.8,29.41,East,97,3.6,3.6,61,0.00,,BKN,0.00,VWS V13.01,2013-06-21 06:55:00,
2013-06-21 03:00:00,63.3,49.7,29.41,East,97,3.6,3.6,61,0.00,,BKN,0.00,VWS V13.01,2013-06-21 07:00:00,
2013-06-21 03:05:00,63.3,49.7,29.41,East,97,3.6,3.6,61,0.00,,BKN,0.00,VWS V13.01,2013-06-21 07:05:00,
2013-06-21 03:10:00,63.1,49.5,29.41,East,97,3.6,3.6,61,0.00,,BKN,0.00,VWS V13.01,2013-06-21 07:10:00,
2013-06-21 03:15:00,63.1,49.5,29.41,East,97,3.6,3.6,61,0.00,,BKN,0.00,VWS V13.01,2013-06-21 07:15:00,
2013-06-21 03:20:00,63.1,49.5,29.41,East,97,3.6,3.6,61,0.00,,BKN,0.00,VWS V13.01,2013-06-21 07:20:00,
2013-06-21 03:25:00,63.0,49.3,29.41,East,97,3.6,3.6,61,0.00,,BKN,0.00,VWS V13.01,2013-06-21 07:25:00,
2013-06-21 03:30:00,62.6,49.0,29.41,East,97,3.6,3.6,61,0.00,,BKN,0.00,VWS V13.01,2013-06-21 07:30:00,
2013-06-21 03:35:00,62.4,48.8,29.41,East,97,3.6,3.6,61,0.00,,BKN,0.00,VWS V13.01,2013-06-21 07:35:00,
2013-06-21 03:40:00,62.1,48.5,29.41,East,97,3.6,3.6,61,0.00,,BKN,0.00,VWS V13.01,2013-06-21 07:40:00,
2013-06-21 03:45:00,61.9,48.3,29.41,East,97,3.6,3.6,61,0.00,,BKN,0.00,VWS V13.01,2013-06-21 07:45:00,
2013-06-21 03:50:00,61.7,48.1,29.41,East,97,3.6,3.6,61,0.00,,BKN,0.00,VWS V13.01,2013-06-21 07:50:00,
2013-06-21 03:55:00,61.5,48.4,29.41,East,97,3.6,3.6,62,0.00,,BKN,0.00,VWS V13.01,2013-06-21 07:55:00,
2013-06-21 04:00:00,61.3,48.2,29.41,East,97,3.6,3.6,62,0.00,,BKN,0.00,VWS V13.01,2013-06-21 08:00:00,
2013-06-21 04:05:00,61.2,48.5,29.41,East,97,3.6,3.6,63,0.00,,BKN,0.00,VWS V13.01,2013-06-21 08:05:00,
2013-06-21 04:10:00,61.0,48.3,29.41,East,97,3.6,3.6,63,0.00,,BKN,0.00,VWS V13.01,2013-06-21 08:10:00,
2013-06-21 04:15:00,61.0,48.7,29.41,East,97,3.6,3.6,64,0.00,,BKN,0.00,VWS V13.01,2013-06-21 08:15:00,
2013-06-21 04:20:00,60.8,48.6,29.41,East,97,3.6,3.6,64,0.00,,BKN,0.00,VWS V13.01,2013-06-21 08:20:00,
2013-06-21 04:25:00,60.8,48.6,29.41,East,97,3.6,3.6,64,0.00,,BKN,0.00,VWS V13.01,2013-06-21 08:25:00,
2013-06-21 04:30:00,60.8,49.0,29.41,East,97,3.6,3.6,65,0.00,,BKN,0.00,VWS V13.01,2013-06-21 08:30:00,
2013-06-21 04:35:00,60.8,49.4,29.41,East,97,3.6,3.6,66,0.00,,BKN,0.00,VWS V13.01,2013-06-21 08:35:00,
2013-06-21 04:40:00,60.6,49.2,29.41,East,97,3.6,3.6,66,0.00,,BKN,0.00,VWS V13.01,2013-06-21 08:40:00,
2013-06-21 04:45:00,60.4,49.0,29.41,East,97,3.6,3.6,66,0.00,,BKN,0.00,VWS V13.01,2013-06-21 08:45:00,
2013-06-21 04:50:00,60.4,49.0,29.41,East,97,3.6,3.6,66,0.00,,BKN,0.00,VWS V13.01,2013-06-21 08:50:00,
2013-06-21 04:55:00,60.1,49.1,29.41,East,97,3.6,3.6,67,0.00,,BKN,0.00,VWS V13.01,2013-06-21 08:55:00,
2013-06-21 05:00:00,60.1,49.5,29.41,East,97,3.6,3.6,68,0.00,,BKN,0.00,VWS V13.01,2013-06-21 09:00:00,
2013-06-21 05:05:00,59.9,49.7,29.41,East,97,3.6,3.6,69,0.00,,BKN,0.00,VWS V13.01,2013-06-21 09:05:00,
2013-06-21 05:10:00,59.5,49.4,29.41,East,97,3.6,3.6,69,0.00,,BKN,0.00,VWS V13.01,2013-06-21 09:10:00,
2013-06-21 05:15:00,59.4,49.2,29.41,East,97,3.6,3.6,69,0.00,,BKN,0.00,VWS V13.01,2013-06-21 09:15:00,
2013-06-21 05:20:00,59.2,49.0,29.41,East,97,3.6,3.6,69,0.00,,BKN,0.00,VWS V13.01,2013-06-21 09:20:00,
2013-06-21 05:25:00,59.2,49.4,29.41,East,97,3.6,3.6,70,0.00,,BKN,0.00,VWS V13.01,2013-06-21 09:25:00,
2013-06-21 05:30:00,59.0,49.2,29.41,East,97,3.6,3.6,70,0.00,,BKN,0.00,VWS V13.01,2013-06-21 09:30:00,
2013-06-21 05:35:00,59.0,49.2,29.41,East,97,3.6,3.6,70,0.00,,BKN,0.00,VWS V13.01,2013-06-21 09:35:00,
2013-06-21 05:40:00,59.0,49.6,29.41,East,97,3.6,3.6,71,0.00,,BKN,0.00,VWS V13.01,2013-06-21 09:40:00,
2013-06-21 05:45:00,59.0,49.6,29.41,East,97,3.6,3.6,71,0.00,,BKN,0.00,VWS V13.01,2013-06-21 09:45:00,
2013-06-21 05:50:00,59.0,49.6,29.41,East,97,3.6,3.6,71,0.00,,BKN,0.00,VWS V13.01,2013-06-21 09:50:00,
2013-06-21 05:55:00,59.0,50.0,29.41,East,97,3.6,3.6,72,0.00,,BKN,0.00,VWS V13.01,2013-06-21 09:55:00,
2013-06-21 06:00:00,58.8,49.8,29.41,East,97,3.6,3.6,72,0.00,,BKN,0.00,VWS V13.01,2013-06-21 10:00:00,
2013-06-21 06:05:00,58.8,49.8,29.41,East,97,3.6,3.6,72,0.00,,BKN,0.00,VWS V13.01,2013-06-21 10:05:00,
2013-06-21 06:10:00,58.6,49.7,29.41,East,97,3.6,3.6,72,0.00,,BKN,0.00,VWS V13.01,2013-06-21 10:10:00,
2013-06-21 06:15:00,58.8,50.2,29.41,East,97,3.6,3.6,73,0.00,,BKN,0.00,VWS V13.01,2013-06-21 10:15:00,
2013-06-21 06:20:00,59.0,50.7,29.41,East,97,3.6,3.6,74,0.00,,BKN,0.00,VWS V13.01,2013-06-21 10:20:00,
2013-06-21 06:25:00,59.2,51.3,29.41,East,97,3.6,3.6,75,0.00,,BKN,0.00,VWS V13.01,2013-06-21 10:25:00,
2013-06-21 06:30:00,59.2,51.6,29.41,East,97,3.6,3.6,76,0.00,,BKN,0.00,VWS V13.01,2013-06-21 10:30:00,
2013-06-21 06:35:00,59.5,52.3,29.41,East,97,3.6,3.6,77,0.00,,BKN,0.00,VWS V13.01,2013-06-21 10:35:00,
2013-06-21 06:40:00,59.7,52.5,29.41,East,97,3.6,3.6,77,0.00,,BKN,0.00,VWS V13.01,2013-06-21 10:40:00,
2013-06-21 06:45:00,60.1,52.9,29.41,East,97,3.6,3.6,77,0.00,,BKN,0.00,VWS V13.01,2013-06-21 10:45:00,
2013-06-21 06:50:00,60.3,53.0,29.41,East,97,3.6,3.6,77,0.00,,BKN,0.00,VWS V13.01,2013-06-21 10:50:00,
2013-06-21 06:55:00,60.1,52.9,29.41,East,97,3.6,3.6,77,0.00,,BKN,0.00,VWS V13.01,2013-06-21 10:55:00,
2013-06-21 07:00:00,60.1,52.9,29.41,East,97,3.6,3.6,77,0.00,,BKN,0.00,VWS V13.01,2013-06-21 11:00:00,
2013-06-21 07:05:00,60.4,53.6,29.41,East,97,3.6,3.6,78,0.00,,BKN,0.00,VWS V13.01,2013-06-21 11:05:00,
2013-06-21 07:10:00,60.6,53.7,29.41,East,97,3.6,3.6,78,0.00,,BKN,0.00,VWS V13.01,2013-06-21 11:10:00,
2013-06-21 07:15:00,61.0,54.4,29.41,East,97,3.6,3.6,79,0.00,,BKN,0.00,VWS V13.01,2013-06-21 11:15:00,
2013-06-21 07:20:00,61.3,54.8,29.41,East,97,3.6,3.6,79,0.00,,BKN,0.00,VWS V13.01,2013-06-21 11:20:00,
2013-06-21 07:25:00,61.7,55.1,29.41,East,97,3.6,3.6,79,0.00,,BKN,0.00,VWS V13.01,2013-06-21 11:25:00,
2013-06-21 07:30:00,62.1,55.5,29.41,East,97,3.6,3.6,79,0.00,,BKN,0.00,VWS V13.01,2013-06-21 11:30:00,
2013-06-21 07:35:00,62.8,56.5,29.41,East,97,3.6,3.6,80,0.00,,BKN,0.00,VWS V13.01,2013-06-21 11:35:00,
2013-06-21 07:40:00,63.5,57.2,29.41,East,97,3.6,3.6,80,0.00,,BKN,0.00,VWS V13.01,2013-06-21 11:40:00,
2013-06-21 07:45:00,63.7,57.0,29.41,East,97,3.6,3.6,79,0.00,,BKN,0.00,VWS V13.01,2013-06-21 11:45:00,
2013-06-21 07:50:00,64.4,58.1,29.44,NW,311,0.0,0.0,80,0.00,,BKN,0.00,VWS V13.01,2013-06-21 11:50:00,
2013-06-21 07:55:00,64.9,58.6,29.44,NW,311,0.0,0.0,80,0.00,,BKN,0.00,VWS V13.01,2013-06-21 11:55:00,
2013-06-21 08:00:00,64.8,58.1,29.44,NW,305,2.7,3.6,79,0.00,,BKN,0.00,VWS V13.01,2013-06-21 12:00:00,
2013-06-21 08:05:00,64.9,57.9,29.44,NW,304,3.1,3.6,78,0.00,,BKN,0.00,VWS V13.01,2013-06-21 12:05:00,
2013-06-21 08:09:00,65.1,58.1,29.44,NW,305,2.7,3.1,78,0.00,,BKN,0.00,VWS V13.01,2013-06-21 12:09:00,
2013-06-21 08:14:00,65.1,57.7,29.44,NW,304,0.0,2.7,77,0.00,,BKN,0.00,VWS V13.01,2013-06-21 12:14:00,
2013-06-21 08:19:00,65.3,57.9,29.44,NW,304,0.0,2.7,77,0.00,,BKN,0.00,VWS V13.01,2013-06-21 12:19:00,
2013-06-21 08:24:00,65.8,58.4,29.44,NW,304,0.0,0.0,77,0.00,,BKN,0.00,VWS V13.01,2013-06-21 12:24:00,
2013-06-21 08:29:00,66.9,60.2,29.44,NW,304,0.0,0.0,79,0.00,,BKN,0.00,VWS V13.01,2013-06-21 12:29:00,
2013-06-21 08:34:00,67.8,60.7,29.44,NW,304,0.0,0.0,78,0.00,,BKN,0.00,VWS V13.01,2013-06-21 12:34:00,
2013-06-21 08:39:00,68.2,60.7,29.44,NW,304,0.0,0.0,77,0.00,,BKN,0.00,VWS V13.01,2013-06-21 12:39:00,
2013-06-21 08:44:00,68.9,60.7,29.44,NW,304,3.6,3.6,75,0.00,,BKN,0.00,VWS V13.01,2013-06-21 12:44:00,
2013-06-21 08:49:00,69.3,57.4,29.44,NW,305,0.0,3.6,66,0.00,,BKN,0.00,VWS V13.01,2013-06-21 12:49:00,
2013-06-21 08:54:00,69.3,55.7,29.44,ESE,111,3.1,4.9,62,0.00,,BKN,0.00,VWS V13.01,2013-06-21 12:54:00,
2013-06-21 08:59:00,69.4,55.0,29.44,SE,134,2.7,4.9,60,0.00,,BKN,0.00,VWS V13.01,2013-06-21 12:59:00,
2013-06-21 09:04:00,69.4,55.0,29.44,SSE,147,3.1,4.5,60,0.00,,BKN,0.00,VWS V13.01,2013-06-21 13:04:00,
2013-06-21 09:09:00,69.6,54.7,29.44,SE,143,0.0,4.5,59,0.00,,BKN,0.00,VWS V13.01,2013-06-21 13:09:00,
2013-06-21 09:14:00,69.8,54.8,29.44,South,186,0.0,2.7,59,0.00,,BKN,0.00,VWS V13.01,2013-06-21 13:14:00,
2013-06-21 09:19:00,70.2,54.7,29.44,South,185,0.0,3.1,58,0.00,,BKN,0.00,VWS V13.01,2013-06-21 13:19:00,
2013-06-21 09:24:00,70.9,54.9,29.44,South,183,3.1,4.0,57,0.00,,BKN,0.00,VWS V13.01,2013-06-21 13:24:00,
2013-06-21 09:29:00,71.4,54.4,29.44,SSW,206,2.7,3.1,55,0.00,,BKN,0.00,VWS V13.01,2013-06-21 13:29:00,
2013-06-21 09:34:00,71.4,52.4,29.44,SSW,199,0.0,4.5,51,0.00,,BKN,0.00,VWS V13.01,2013-06-21 13:34:00,
2013-06-21 09:40:00,71.6,53.1,29.44,ESE,109,3.1,4.5,52,0.00,,BKN,0.00,VWS V13.01,2013-06-21 13:40:00,
2013-06-21 09:46:00,71.6,52.0,29.44,SW,214,0.0,0.0,50,0.00,,BKN,0.00,VWS V13.01,2013-06-21 13:46:00,
2013-06-21 09:51:00,72.0,52.3,29.44,ENE,72,4.0,4.9,50,0.00,,BKN,0.00,VWS V13.01,2013-06-21 13:51:00,
2013-06-21 09:57:00,72.3,52.7,29.44,SE,141,3.6,4.0,50,0.00,,BKN,0.00,VWS V13.01,2013-06-21 13:57:00,
2013-06-21 10:02:00,72.5,52.8,29.44,SE,135,4.0,4.0,50,0.00,,BKN,0.00,VWS V13.01,2013-06-21 14:02:00,
2013-06-21 10:08:00,72.7,51.9,29.44,SW,232,3.1,4.0,48,0.00,,BKN,0.00,VWS V13.01,2013-06-21 14:08:00,
2013-06-21 10:14:00,72.9,50.9,29.44,SSE,149,4.0,5.8,46,0.00,,BKN,0.00,VWS V13.01,2013-06-21 14:14:00,
2013-06-21 10:19:00,72.9,50.3,29.44,South,183,4.9,5.4,45,0.00,,BKN,0.00,VWS V13.01,2013-06-21 14:19:00,
2013-06-21 10:24:00,73.2,51.8,29.44,South,183,0.0,0.0,47,0.00,,BKN,0.00,VWS V13.01,2013-06-21 14:24:00,
2013-06-21 10:29:00,73.4,52.0,29.44,East,86,4.9,6.3,47,0.00,,BKN,0.00,VWS V13.01,2013-06-21 14:29:00,
2013-06-21 10:34:00,73.8,51.7,29.44,East,99,3.1,4.9,46,0.00,,BKN,0.00,VWS V13.01,2013-06-21 14:34:00,
2013-06-21 10:39:00,74.1,52.0,29.44,SW,227,2.7,2.7,46,0.00,,BKN,0.00,VWS V13.01,2013-06-21 14:39:00,
2013-06-21 10:44:00,74.3,51.6,29.44,ESE,113,3.6,3.6,45,0.00,,BKN,0.00,VWS V13.01,2013-06-21 14:44:00,
2013-06-21 10:49:00,74.7,51.3,29.44,ESE,109,5.4,5.8,44,0.00,,BKN,0.00,VWS V13.01,2013-06-21 14:49:00,
2013-06-21 10:54:00,75.0,51.7,29.44,ESE,105,4.0,4.5,44,0.00,,BKN,0.00,VWS V13.01,2013-06-21 14:54:00,
2013-06-21 10:59:00,75.2,51.8,29.44,SE,131,4.0,4.0,44,0.00,,BKN,0.00,VWS V13.01,2013-06-21 14:59:00,
2013-06-21 11:04:00,75.4,52.0,29.44,ENE,67,5.4,7.4,44,0.00,,BKN,0.00,VWS V13.01,2013-06-21 15:04:00,
2013-06-21 11:09:00,75.4,51.3,29.44,NE,53,4.0,5.4,43,0.00,,BKN,0.00,VWS V13.01,2013-06-21 15:09:00,
2013-06-21 11:13:00,75.4,51.3,29.44,SE,131,4.0,4.5,43,0.00,,BKN,0.00,VWS V13.01,2013-06-21 15:13:00,
2013-06-21 11:18:00,75.6,50.9,29.44,East,82,3.1,3.6,42,0.00,,BKN,0.00,VWS V13.01,2013-06-21 15:18:00,
2013-06-21 11:23:00,75.9,51.2,29.44,ESE,103,3.1,5.8,42,0.00,,BKN,0.00,VWS V13.01,2013-06-21 15:23:00,
2013-06-21 11:28:00,76.1,51.4,29.44,NE,49,6.3,7.4,42,0.00,,BKN,0.00,VWS V13.01,2013-06-21 15:28:00,
2013-06-21 11:33:00,75.9,50.5,29.44,North,7,3.1,4.9,41,0.00,,BKN,0.00,VWS V13.01,2013-06-21 15:33:00,
2013-06-21 11:38:00,75.7,50.4,29.44,NNE,15,4.9,4.9,41,0.00,,BKN,0.00,VWS V13.01,2013-06-21 15:38:00,
2013-06-21 11:43:00,75.6,48.9,29.44,East,91,4.9,6.3,39,0.00,,BKN,0.00,VWS V13.01,2013-06-21 15:43:00,
2013-06-21 11:48:00,75.9,49.2,29.44,ESE,105,3.6,7.4,39,0.00,,BKN,0.00,VWS V13.01,2013-06-21 15:48:00,
2013-06-21 11:53:00,76.1,48.0,29.44,SE,144,3.1,8.3,37,0.00,,BKN,0.00,VWS V13.01,2013-06-21 15:53:00,
2013-06-21 11:58:00,76.1,48.7,29.44,NE,53,4.9,6.3,38,0.00,,BKN,0.00,VWS V13.01,2013-06-21 15:58:00,
2013-06-21 12:03:00,75.9,48.5,29.44,East,86,6.3,6.3,38,0.00,,BKN,0.00,VWS V13.01,2013-06-21 16:03:00,
2013-06-21 12:09:00,76.3,49.5,29.44,East,86,6.3,6.3,39,0.00,,BKN,0.00,VWS V13.01,2013-06-21 16:09:00,
2013-06-21 12:14:00,76.6,50.5,29.44,East,86,6.3,6.3,40,0.00,,BKN,0.00,VWS V13.01,2013-06-21 16:14:00,
2013-06-21 12:20:00,76.8,50.7,29.44,East,86,6.3,6.3,40,0.00,,BKN,0.00,VWS V13.01,2013-06-21 16:20:00,
2013-06-21 12:26:00,77.0,48.8,29.44,East,86,6.3,6.3,37,0.00,,BKN,0.00,VWS V13.01,2013-06-21 16:26:00,
2013-06-21 12:31:00,77.2,51.0,29.44,East,86,6.3,6.3,40,0.00,,BKN,0.00,VWS V13.01,2013-06-21 16:31:00,
2013-06-21 12:36:00,77.2,49.6,29.44,East,86,6.3,6.3,38,0.00,,BKN,0.00,VWS V13.01,2013-06-21 16:36:00,
2013-06-21 13:06:00,78.6,49.5,29.44,East,86,6.3,6.3,36,0.00,,BKN,0.00,VWS V13.01,2013-06-21 17:06:00,
2013-06-21 13:12:00,78.1,49.0,29.41,East,86,6.3,6.3,36,0.00,,BKN,0.00,VWS V13.01,2013-06-21 17:12:00,
2013-06-21 13:17:00,77.9,49.6,29.41,East,86,6.3,6.3,37,0.00,,BKN,0.00,VWS V13.01,2013-06-21 17:17:00,
2013-06-21 13:22:00,77.9,50.3,29.41,East,86,6.3,6.3,38,0.00,,BKN,0.00,VWS V13.01,2013-06-21 17:22:00,
2013-06-21 13:28:00,77.9,51.0,29.41,East,86,6.3,6.3,39,0.00,,BKN,0.00,VWS V13.01,2013-06-21 17:28:00,
2013-06-21 13:33:00,78.1,51.1,29.41,East,86,6.3,6.3,39,0.00,,BKN,0.00,VWS V13.01,2013-06-21 17:33:00,
2013-06-21 13:39:00,78.3,49.9,29.41,East,86,6.3,6.3,37,0.00,,BKN,0.00,VWS V13.01,2013-06-21 17:39:00,
2013-06-21 13:44:00,78.4,51.5,29.41,East,86,6.3,6.3,39,0.00,,BKN,0.00,VWS V13.01,2013-06-21 17:44:00,
2013-06-21 13:46:00,78.6,52.3,29.41,East,86,6.3,6.3,40,0.00,,BKN,0.00,VWS V13.01,2013-06-21 17:46:00,
2013-06-21 13:48:00,78.4,50.8,29.41,East,86,6.3,6.3,38,0.00,,BKN,0.00,VWS V13.01,2013-06-21 17:48:00,
2013-06-21 13:53:00,78.6,50.9,29.41,East,86,6.3,6.3,38,0.00,,BKN,0.00,VWS V13.01,2013-06-21 17:53:00,
2013-06-21 13:58:00,78.6,51.6,29.41,East,86,6.3,6.3,39,0.00,,BKN,0.00,VWS V13.01,2013-06-21 17:58:00,
2013-06-21 14:03:00,78.6,51.6,29.41,East,86,6.3,6.3,39,0.00,,BKN,0.00,VWS V13.01,2013-06-21 18:03:00,
2013-06-21 14:08:00,78.8,51.1,29.41,East,86,6.3,6.3,38,0.00,,BKN,0.00,VWS V13.01,2013-06-21 18:08:00,
2013-06-21 14:13:00,78.8,52.5,29.41,East,86,6.3,6.3,40,0.00,,BKN,0.00,VWS V13.01,2013-06-21 18:13:00,
2013-06-21 14:18:00,79.2,51.4,29.41,East,86,6.3,6.3,38,0.00,,BKN,0.00,VWS V13.01,2013-06-21 18:18:00,
2013-06-21 14:23:00,79.3,52.3,29.41,East,86,6.3,6.3,39,0.00,,BKN,0.00,VWS V13.01,2013-06-21 18:23:00,
2013-06-21 14:28:00,80.2,52.3,29.41,East,86,6.3,6.3,38,0.00,,BKN,0.00,VWS V13.01,2013-06-21 18:28:00,
2013-06-21 14:33:00,80.2,50.9,29.41,East,86,6.3,6.3,36,0.00,,BKN,0.00,VWS V13.01,2013-06-21 18:33:00,
2013-06-21 14:39:00,80.1,50.7,29.41,East,86,6.3,6.3,36,0.00,,BKN,0.00,VWS V13.01,2013-06-21 18:39:00,
2013-06-21 15:37:00,80.2,51.6,29.41,East,86,6.3,6.3,37,0.00,,BKN,0.00,VWS V13.01,2013-06-21 19:37:00,
2013-06-21 15:42:00,80.2,52.3,29.41,East,86,6.3,6.3,38,0.00,,BKN,0.00,VWS V13.01,2013-06-21 19:42:00,
2013-06-21 15:43:00,80.2,51.6,29.41,East,86,6.3,6.3,37,0.00,,BKN,0.00,VWS V13.01,2013-06-21 19:43:00,
2013-06-21 15:48:00,80.2,51.6,29.41,East,86,6.3,6.3,37,0.00,,BKN,0.00,VWS V13.01,2013-06-21 19:48:00,
2013-06-21 15:53:00,79.7,51.2,29.41,East,86,6.3,6.3,37,0.00,,BKN,0.00,VWS V13.01,2013-06-21 19:53:00,
2013-06-21 15:58:00,79.9,52.0,29.41,East,86,6.3,6.3,38,0.00,,BKN,0.00,VWS V13.01,2013-06-21 19:58:00,
2013-06-21 16:03:00,80.2,52.3,29.41,East,86,6.3,6.3,38,0.00,,BKN,0.00,VWS V13.01,2013-06-21 20:03:00,
2013-06-21 16:04:00,80.2,51.6,29.41,East,86,6.3,6.3,37,0.00,,BKN,0.00,VWS V13.01,2013-06-21 20:04:00,
2013-06-21 16:08:00,80.1,52.2,29.41,East,86,6.3,6.3,38,0.00,,BKN,0.00,VWS V13.01,2013-06-21 20:08:00,
2013-06-21 16:11:00,80.1,51.5,29.38,East,86,6.3,6.3,37,0.00,,BKN,0.00,VWS V13.01,2013-06-21 20:11:00,
2013-06-21 16:13:00,80.1,52.2,29.38,East,86,6.3,6.3,38,0.00,,BKN,0.00,VWS V13.01,2013-06-21 20:13:00,
2013-06-21 16:19:00,80.1,50.7,29.38,East,86,6.3,6.3,36,0.00,,BKN,0.00,VWS V13.01,2013-06-21 20:19:00,
2013-06-21 16:24:00,80.1,52.9,29.38,East,86,6.3,6.3,39,0.00,,BKN,0.00,VWS V13.01,2013-06-21 20:24:00,
2013-06-21 16:30:00,80.4,51.0,29.38,East,86,6.3,6.3,36,0.00,,BKN,0.00,VWS V13.01,2013-06-21 20:30:00,
2013-06-21 16:35:00,80.2,51.6,29.38,East,86,6.3,6.3,37,0.00,,BKN,0.00,VWS V13.01,2013-06-21 20:35:00,
2013-06-21 16:41:00,80.6,51.2,29.38,East,86,6.3,6.3,36,0.00,,BKN,0.00,VWS V13.01,2013-06-21 20:41:00,
2013-06-21 16:48:00,80.4,50.3,29.38,NE,34,6.3,7.8,35,0.00,,BKN,0.00,VWS V13.01,2013-06-21 20:48:00,
2013-06-21 16:53:00,80.1,50.7,29.38,NE,54,6.9,8.3,36,0.00,,BKN,0.00,VWS V13.01,2013-06-21 20:53:00,
2013-06-21 16:57:00,80.1,50.7,29.38,East,90,7.4,9.2,36,0.00,,BKN,0.00,VWS V13.01,2013-06-21 20:57:00,
2013-06-21 17:02:00,79.7,50.4,29.38,SE,133,6.7,7.4,36,0.00,,BKN,0.00,VWS V13.01,2013-06-21 21:02:00,
2013-06-21 17:03:00,79.7,49.7,29.38,SSE,151,4.0,6.9,35,0.00,,BKN,0.00,VWS V13.01,2013-06-21 21:03:00,
2013-06-21 17:04:00,79.7,49.7,29.38,ENE,71,4.5,5.4,35,0.00,,BKN,0.00,VWS V13.01,2013-06-21 21:04:00,
2013-06-21 17:09:00,79.9,50.6,29.38,East,88,5.8,6.9,36,0.00,,BKN,0.00,VWS V13.01,2013-06-21 21:09:00,
2013-06-21 17:14:00,79.7,50.4,29.38,East,100,6.3,6.3,36,0.00,,BKN,0.00,VWS V13.01,2013-06-21 21:14:00,
2013-06-21 17:19:00,79.9,51.3,29.38,ESE,109,5.8,6.3,37,0.00,,BKN,0.00,VWS V13.01,2013-06-21 21:19:00,
2013-06-21 17:24:00,79.9,51.3,29.38,ENE,58,3.6,4.5,37,0.00,,BKN,0.00,VWS V13.01,2013-06-21 21:24:00,
2013-06-21 17:29:00,80.1,50.7,29.38,NE,55,5.8,5.8,36,0.00,,BKN,0.00,VWS V13.01,2013-06-21 21:29:00,
2013-06-21 17:34:00,79.7,50.4,29.38,SE,128,6.7,6.7,36,0.00,,BKN,0.00,VWS V13.01,2013-06-21 21:34:00,
2013-06-21 17:39:00,79.5,50.2,29.38,East,88,9.6,9.6,36,0.00,,BKN,0.00,VWS V13.01,2013-06-21 21:39:00,
2013-06-21 18:14:00,79.3,51.5,29.38,ESE,113,5.8,8.7,38,0.00,,BKN,0.00,VWS V13.01,2013-06-21 22:14:00,
2013-06-21 18:19:00,79.2,51.4,29.38,ESE,104,3.1,8.3,38,0.00,,BKN,0.00,VWS V13.01,2013-06-21 22:19:00,
2013-06-21 18:24:00,79.2,52.1,29.38,East,88,6.9,6.9,39,0.00,,BKN,0.00,VWS V13.01,2013-06-21 22:24:00,
2013-06-21 18:30:00,79.0,51.2,29.38,ESE,104,8.3,8.3,38,0.00,,BKN,0.00,VWS V13.01,2013-06-21 22:30:00,
2013-06-21 18:35:00,78.8,51.8,29.38,East,95,5.4,6.9,39,0.00,,BKN,0.00,VWS V13.01,2013-06-21 22:35:00,
2013-06-21 18:40:00,78.4,51.5,29.38,ENE,78,5.8,9.6,39,0.00,,BKN,0.00,VWS V13.01,2013-06-21 22:40:00,
2013-06-21 18:45:00,78.3,50.6,29.38,East,101,5.4,11.0,38,0.00,,BKN,0.00,VWS V13.01,2013-06-21 22:45:00,
2013-06-21 18:50:00,78.3,50.6,29.38,SE,145,6.3,6.3,38,0.00,,BKN,0.00,VWS V13.01,2013-06-21 22:50:00,
2013-06-21 18:55:00,78.1,50.4,29.38,East,96,6.7,6.9,38,0.00,,BKN,0.00,VWS V13.01,2013-06-21 22:55:00,
2013-06-21 19:00:00,78.1,51.1,29.38,ESE,121,5.4,5.4,39,0.00,,BKN,0.00,VWS V13.01,2013-06-21 23:00:00,
2013-06-21 19:05:00,77.9,51.0,29.38,East,86,3.6,6.3,39,0.00,,BKN,0.00,VWS V13.01,2013-06-21 23:05:00,
2013-06-21 19:10:00,77.7,51.5,29.38,SE,127,6.3,6.7,40,0.00,,BKN,0.00,VWS V13.01,2013-06-21 23:10:00,
2013-06-21 19:14:00,77.5,51.3,29.38,SE,141,4.0,6.9,40,0.00,,BKN,0.00,VWS V13.01,2013-06-21 23:14:00,
2013-06-21 19:19:00,77.4,51.2,29.38,ESE,108,3.1,6.3,40,0.00,,BKN,0.00,VWS V13.01,2013-06-21 23:19:00,
2013-06-21 19:24:00,77.2,51.7,29.38,SE,128,4.5,7.4,41,0.00,,BKN,0.00,VWS V13.01,2013-06-21 23:24:00,
2013-06-21 19:29:00,77.0,50.9,29.38,ESE,117,8.3,8.3,40,0.00,,BKN,0.00,VWS V13.01,2013-06-21 23:29:00,
2013-06-21 19:34:00,76.8,51.4,29.38,ESE,102,7.8,7.8,41,0.00,,BKN,0.00,VWS V13.01,2013-06-21 23:34:00,
2013-06-21 19:39:00,76.5,51.0,29.38,ESE,115,6.9,8.7,41,0.00,,BKN,0.00,VWS V13.01,2013-06-21 23:39:00,
2013-06-21 19:44:00,76.3,50.9,29.38,East,97,4.9,6.3,41,0.00,,BKN,0.00,VWS V13.01,2013-06-21 23:44:00,
2013-06-21 19:49:00,76.1,51.4,29.38,SE,131,3.6,5.8,42,0.00,,BKN,0.00,VWS V13.01,2013-06-21 23:49:00,
2013-06-21 19:54:00,75.9,51.8,29.38,East,90,4.0,4.0,43,0.00,,BKN,0.00,VWS V13.01,2013-06-21 23:54:00,
2013-06-21 19:59:00,75.6,51.5,29.38,ESE,108,4.9,5.8,43,0.00,,BKN,0.00,VWS V13.01,2013-06-21 23:59:00,
2013-06-21 20:04:00,75.2,51.2,29.38,SE,134,3.1,4.9,43,0.00,,BKN,0.00,VWS V13.01,2013-06-22 00:04:00,
2013-06-21 20:09:00,75.0,51.7,29.35,ESE,121,3.6,5.4,44,0.00,,BKN,0.00,VWS V13.01,2013-06-22 00:09:00,
2013-06-21 20:14:00,74.7,51.3,29.35,ESE,111,4.5,5.4,44,0.00,,BKN,0.00,VWS V13.01,2013-06-22 00:14:00,
2013-06-21 20:19:00,74.5,51.2,29.35,East,90,3.6,3.6,44,0.00,,BKN,0.00,VWS V13.01,2013-06-22 00:19:00,
2013-06-21 20:24:00,74.3,51.6,29.38,ESE,118,3.6,4.0,45,0.00,,BKN,0.00,VWS V13.01,2013-06-22 00:24:00,
2013-06-21 20:29:00,73.9,51.3,29.38,ESE,116,4.0,4.5,45,0.00,,BKN,0.00,VWS V13.01,2013-06-22 00:29:00,
2013-06-21 20:34:00,73.8,51.1,29.38,East,79,4.0,4.9,45,0.00,,BKN,0.00,VWS V13.01,2013-06-22 00:34:00,
2013-06-21 20:39:00,73.6,51.0,29.38,East,98,4.0,4.0,45,0.00,,BKN,0.00,VWS V13.01,2013-06-22 00:39:00,
2013-06-21 20:44:00,73.4,50.8,29.38,SE,125,2.7,3.6,45,0.00,,BKN,0.00,VWS V13.01,2013-06-22 00:44:00,
2013-06-21 20:49:00,73.2,50.6,29.38,ESE,110,3.6,4.5,45,0.00,,BKN,0.00,VWS V13.01,2013-06-22 00:49:00,
2013-06-21 20:54:00,73.0,51.1,29.38,East,95,5.8,5.8,46,0.00,,BKN,0.00,VWS V13.01,2013-06-22 00:54:00,
2013-06-21 20:59:00,73.0,51.1,29.38,SE,132,3.1,3.1,46,0.00,,BKN,0.00,VWS V13.01,2013-06-22 00:59:00,
2013-06-21 21:04:00,72.7,50.7,29.38,ESE,121,3.6,3.6,46,0.00,,BKN,0.00,VWS V13.01,2013-06-22 01:04:00,
2013-06-21 21:09:00,72.5,51.2,29.38,East,100,5.4,5.4,47,0.00,,BKN,0.00,VWS V13.01,2013-06-22 01:09:00,
2013-06-21 21:14:00,72.3,51.0,29.38,ESE,112,0.0,0.0,47,0.00,,BKN,0.00,VWS V13.01,2013-06-22 01:14:00,
2013-06-21 21:19:00,72.1,51.4,29.38,SSE,147,0.0,3.1,48,0.00,,BKN,0.00,VWS V13.01,2013-06-22 01:19:00,
2013-06-21 21:24:00,71.8,51.1,29.38,ESE,113,3.6,3.6,48,0.00,,BKN,0.00,VWS V13.01,2013-06-22 01:24:00,
2013-06-21 21:29:00,71.6,50.9,29.38,ESE,113,0.0,0.0,48,0.00,,BKN,0.00,VWS V13.01,2013-06-22 01:29:00,
2013-06-21 21:34:00,71.4,51.3,29.38,ESE,105,2.7,3.1,49,0.00,,BKN,0.00,VWS V13.01,2013-06-22 01:34:00,
2013-06-21 21:39:00,71.2,51.1,29.38,ESE,119,2.7,3.1,49,0.00,,BKN,0.00,VWS V13.01,2013-06-22 01:39:00,
2013-06-21 21:44:00,71.2,51.1,29.38,ESE,113,4.0,4.5,49,0.00,,BKN,0.00,VWS V13.01,2013-06-22 01:44:00,
2013-06-21 21:49:00,71.1,51.0,29.38,ESE,116,0.0,0.0,49,0.00,,BKN,0.00,VWS V13.01,2013-06-22 01:49:00,
2013-06-21 21:54:00,70.7,50.6,29.38,ESE,116,0.0,0.0,49,0.00,,BKN,0.00,VWS V13.01,2013-06-22 01:54:00,
2013-06-21 21:59:00,70.5,51.0,29.38,ESE,116,0.0,0.0,50,0.00,,BKN,0.00,VWS V13.01,2013-06-22 01:59:00,
2013-06-21 22:04:00,70.3,50.8,29.38,ESE,116,0.0,0.0,50,0.00,,BKN,0.00,VWS V13.01,2013-06-22 02:04:00,
2013-06-21 22:09:00,70.2,50.7,29.38,ESE,116,0.0,0.0,50,0.00,,BKN,0.00,VWS V13.01,2013-06-22 02:09:00,
2013-06-21 22:14:00,70.2,50.7,29.38,ESE,116,0.0,0.0,50,0.00,,BKN,0.00,VWS V13.01,2013-06-22 02:14:00,
2013-06-21 22:19:00,70.2,50.7,29.38,ESE,116,0.0,0.0,50,0.00,,BKN,0.00,VWS V13.01,2013-06-22 02:19:00,
2013-06-21 22:24:00,70.2,50.7,29.38,ESE,116,0.0,0.0,50,0.00,,BKN,0.00,VWS V13.01,2013-06-22 02:24:00,
2013-06-21 22:29:00,70.2,50.7,29.38,ESE,112,3.1,3.6,50,0.00,,BKN,0.00,VWS V13.01,2013-06-22 02:29:00,
2013-06-21 22:34:00,70.0,51.0,29.38,ESE,112,0.0,0.0,51,0.00,,BKN,0.00,VWS V13.01,2013-06-22 02:34:00,
2013-06-21 22:39:00,69.8,50.9,29.38,ESE,112,0.0,0.0,51,0.00,,BKN,0.00,VWS V13.01,2013-06-22 02:39:00,
2013-06-21 22:44:00,69.4,51.1,29.38,ESE,118,0.0,0.0,52,0.00,,BKN,0.00,VWS V13.01,2013-06-22 02:44:00,
2013-06-21 22:49:00,69.3,50.9,29.38,SE,128,0.0,0.0,52,0.00,,BKN,0.00,VWS V13.01,2013-06-22 02:49:00,
2013-06-21 22:54:00,68.9,51.1,29.38,SE,128,0.0,0.0,53,0.00,,BKN,0.00,VWS V13.01,2013-06-22 02:54:00,
2013-06-21 22:59:00,68.7,50.9,29.38,SE,128,0.0,0.0,53,0.00,,BKN,0.00,VWS V13.01,2013-06-22 02:59:00,
2013-06-21 23:04:00,68.5,51.2,29.38,SE,128,0.0,0.0,54,0.00,,BKN,0.00,VWS V13.01,2013-06-22 03:04:00,
2013-06-21 23:09:00,68.4,51.6,29.38,SE,128,0.0,0.0,55,0.00,,BKN,0.00,VWS V13.01,2013-06-22 03:09:00,
2013-06-21 23:14:00,68.2,52.4,29.38,SE,128,3.1,3.1,57,0.00,,BKN,0.00,VWS V13.01,2013-06-22 03:14:00,
2013-06-21 23:19:00,68.0,52.2,29.38,SE,145,3.1,3.1,57,0.00,,BKN,0.00,VWS V13.01,2013-06-22 03:19:00,
2013-06-21 23:24:00,67.8,53.0,29.38,SSE,153,3.1,3.1,59,0.00,,BKN,0.00,VWS V13.01,2013-06-22 03:24:00,
2013-06-21 23:29:00,67.6,52.8,29.38,ESE,113,0.0,0.0,59,0.00,,BKN,0.00,VWS V13.01,2013-06-22 03:29:00,
2013-06-21 23:34:00,67.6,52.8,29.38,ESE,113,0.0,0.0,59,0.00,,BKN,0.00,VWS V13.01,2013-06-22 03:34:00,
2013-06-21 23:39:00,67.5,52.7,29.38,ESE,102,2.7,2.7,59,0.00,,BKN,0.00,VWS V13.01,2013-06-22 03:39:00,
2013-06-21 23:44:00,67.5,52.7,29.38,ESE,102,0.0,0.0,59,0.00,,BKN,0.00,VWS V13.01,2013-06-22 03:44:00,
2013-06-21 23:49:00,67.3,52.5,29.38,ESE,102,0.0,0.0,59,0.00,,BKN,0.00,VWS V13.01,2013-06-22 03:49:00,
2013-06-21 23:54:00,67.3,52.5,29.38,ESE,102,0.0,0.0,59,0.00,,BKN,0.00,VWS V13.01,2013-06-22 03:54:00,
2013-06-21 23:59:00,67.1,52.3,29.38,ESE,102,0.0,0.0,59,0.00,,BKN,0.00,VWS V13.01,2013-06-22 03:59:00,